Location: Newark
(48.1500°N, 2.9667°W)
Time: 15:17:20
(UTC+00:00)

A-11 Canister half - Pass Details

Date: 25 January 2020
Orbit: 1517 x 1683 km, 47.2° (Epoch: 17 February)

Event Time Altitude Azimuth Distance (km) Brightness Sun altitude
Exits shadow 05:02:45 50° 256° (WSW) 1,866 9.0 -27.6°
Maximum altitude 05:05:03 63° 205° (SSW) 1,670 8.9 -27.2°
Drops below altitude 10° 05:14:11 10° 128° (SE) 3,712 11.7 -25.6°
Sets 05:17:18 0° 125° (SE) 4,710 12.4 -25.1°
